Tracking 17636 objects as of 29-April-2016
HD Live streaming from Space Station
objects crossing your sky now

TDRS 3

Track TDRS 3 now!
TDRS 3 is classified as:


NORAD ID: 19548
Int'l Code: 1988-091B
Perigee: 35,711.3 km
Apogee: 36,028.9 km
Inclination: 14.8 °
Period: 1,440.0 minutes
Semi major axis: 42241 km
RCS: 38.9601 m2 (large)
Launch date: September 29, 1988
Source: United States (US)
Launch site: AIR FORCE EASTERN TEST RANGE (AFETR)

Backup; still partially operational.
Your satellite tracking list
Your tracking list is empty





NASA's NSSDC Master Catalog

Two Line Element Set (TLE):
1 19548U 88091B   16120.12701206 -.00000300  00000-0  00000+0 0  9995
2 19548  14.7934  12.5483 0037596 309.8420 238.3807  1.00265155 88255
Source of the keplerian elements: AFSPC

N2YO: 258